Location: Derby
(52.9213°N, 1.4761°W)
Time: 17:44:33
(UTC+01:00)

Tiros 1 - Pass Details

Date: 22 May 2025
Orbit: 620 x 651 km, 48.4° (Epoch: 13 June)

Event Time Altitude Azimuth Distance (km) Brightness Sun altitude
Rises 22:41:22 0° 275° (W) 2,913 11.1 -10.4°
Reaches altitude 10° 22:44:01 10° 262° (W) 2,009 10.0 -10.6°
Maximum altitude 22:47:43 24° 209° (SSW) 1,318 8.5 -10.9°
Enters shadow 22:50:25 15° 165° (SSE) 1,729 8.7 -11.1°
Drops below altitude 10° 22:51:25 10° 156° (SSE) 2,019 - -11.2°
Sets 22:54:06 0° 142° (SE) 2,931 - -11.4°
